W8MRL Weather Reports


time (UTC)temp
C
wind
direction
speed
KPH
gust
KPH
rain 1hr
cm
rain 24hr
cm
rain mn
cm
humidity
%
barometer
mb
20260507163035 13 273 6.4 17.7 0.00 0.00 0.00 52 1019.8
20260507161534 12 293 8.0 16.1 0.00 0.00 0.00 51 1019.8
20260507160036 12 21 3.2 12.9 0.00 0.00 0.00 56 1019.8
20260507154532 12 319 6.4 16.1 0.00 0.00 0.00 54 1019.8
20260507153028 12 283 4.8 12.9 0.00 0.00 0.00 56 1019.9
20260507151527 12 285 4.8 11.3 0.00 0.00 0.00 54 1019.8
20260507150024 11 256 4.8 11.3 0.00 0.00 0.00 54 1019.7
20260507144523 11 297 4.8 12.9 0.00 0.00 0.00 53 1019.8
20260507143022 11 198 3.2 11.3 0.00 0.00 0.00 54 1019.7
20260507141519 11 315 4.8 9.7 0.00 0.00 0.00 54 1019.8
20260507140018 10 305 1.6 12.9 0.00 0.00 0.00 60 1019.8
20260507134519 10 321 3.2 9.7 0.00 0.00 0.00 59 1019.9
20260507133015 10 322 1.6 6.4 0.00 0.00 0.00 61 1019.7
20260507131510 10 18 1.6 4.8 0.00 0.00 0.00 67 1019.8
20260507130007 8 330 0.0 6.4 0.00 0.00 0.00 74 1019.8
20260507124504 7 269 1.6 4.8 0.00 0.00 0.00 75 1019.8
20260507123106 6 304 1.6 4.8 0.00 0.00 0.00 80 1019.8
20260507121601 5 309 0.0 4.8 0.00 0.00 0.00 83 1019.8
20260507120057 5 323 0.0 3.2 0.00 0.00 0.00 86 1019.9
20260507114605 3 302 0.0 1.6 0.00 0.00 0.00 89 1019.8
20260507113055 3 298 0.0 1.6 0.00 0.00 0.00 91 1019.8
20260507111553 2 338 0.0 1.6 0.00 0.00 0.00 92 1019.6
20260507110153 2 338 0.0 0.0 0.00 0.00 0.00 93 1019.5
20260507104550 2 338 0.0 0.0 0.00 0.00 0.00 93 1019.3
20260507103053 2 339 0.0 0.0 0.00 0.00 0.00 93 1019.2
20260507101549 2 338 0.0 0.0 0.00 0.00 0.00 92 1019.2
20260507100046 3 338 0.0 0.0 0.00 0.00 0.00 92 1019.1
20260507094547 3 338 0.0 0.0 0.00 0.00 0.00 93 1019.2
20260507093044 3 338 0.0 1.6 0.00 0.00 0.00 94 1019.1
20260507091543 3 338 0.0 0.0 0.00 0.00 0.00 93 1019.0
20260507090043 3 338 0.0 0.0 0.00 0.00 0.00 94 1018.8
20260507084544 3 338 0.0 0.0 0.00 0.00 0.00 94 1018.7
20260507083047 3 338 0.0 0.0 0.00 0.00 0.00 94 1018.6
20260507081538 4 338 0.0 0.0 0.00 0.00 0.00 94 1018.5
20260507080042 4 338 0.0 0.0 0.00 0.00 0.00 95 1018.5
20260507074543 3 338 0.0 0.0 0.00 0.18 0.00 94 1018.6
20260507073035 4 338 0.0 0.0 0.00 0.18 0.00 94 1018.6
20260507071552 4 338 0.0 0.0 0.00 0.18 0.00 94 1018.6
20260507070036 4 338 0.0 0.0 0.00 0.18 0.00 94 1018.6
20260507064532 4 338 0.0 0.0 0.00 0.25 0.00 94 1018.7
20260507063032 5 338 0.0 0.0 0.00 0.25 0.00 94 1018.9
20260507061529 5 338 0.0 0.0 0.00 0.25 0.00 94 1018.8
20260507060026 5 338 0.0 0.0 0.00 0.25 0.00 94 1018.7
20260507054526 5 338 0.0 0.0 0.00 0.84 0.00 93 1018.9
20260507053025 5 338 0.0 0.0 0.00 0.84 0.00 93 1018.8
20260507051523 5 338 0.0 0.0 0.00 0.84 0.00 93 1018.9
20260507050021 6 338 0.0 0.0 0.00 0.84 0.00 93 1019.0
20260507044518 6 338 0.0 0.0 0.00 1.42 0.00 92 1019.0
20260507043018 6 338 0.0 0.0 0.00 1.42 0.00 92 1018.8
20260507041515 6 338 0.0 0.0 0.00 1.42 0.00 91 1018.7
20260507040013 6 338 0.0 0.0 0.00 1.42 0.00 91 1018.6
20260507034513 6 338 0.0 0.0 0.00 1.83 1.42 90 1018.7
20260507033012 7 338 0.0 0.0 0.00 1.83 1.42 89 1018.6
20260507031511 7 338 0.0 0.0 0.00 1.83 1.42 89 1018.7
20260507030012 7 338 0.0 0.0 0.00 1.83 1.42 89 1018.7
20260507024511 7 338 0.0 0.0 0.00 2.03 1.42 88 1018.8
20260507023010 7 338 0.0 0.0 0.00 2.03 1.42 88 1018.8
20260507021513 8 338 0.0 0.0 0.00 2.03 1.42 87 1018.7
20260507020005 8 338 0.0 0.0 0.00 2.03 1.42 87 1018.4
20260507014505 9 338 0.0 0.0 0.00 2.26 1.42 86 1018.3
20260507013003 9 338 0.0 0.0 0.00 2.26 1.42 86 1018.1
20260507011501 9 338 0.0 0.0 0.00 2.26 1.42 85 1018.0
20260507010002 9 338 0.0 0.0 0.00 2.26 1.42 82 1017.9
20260507004501 10 338 0.0 0.0 0.00 2.49 1.42 81 1017.9
20260507003059 11 338 0.0 0.0 0.00 2.49 1.42 78 1017.7
20260507001615 11 338 0.0 0.0 0.00 2.49 1.42 74 1017.4
20260507000101 12 338 0.0 0.0 0.00 2.49 1.42 72 1017.2
20260506234602 12 338 0.0 3.2 0.00 2.69 1.42 69 1017.1
20260506233055 13 314 0.0 4.8 0.00 2.69 1.42 65 1017.1
20260506231555 13 322 1.6 6.4 0.00 2.69 1.42 62 1017.0
20260506230054 13 328 0.0 4.8 0.00 2.69 1.42 63 1017.1
20260506224554 14 271 1.6 6.4 0.00 2.87 1.42 59 1017.1
20260506223054 13 316 3.2 8.0 0.00 2.87 1.42 60 1017.2
20260506221553 13 273 3.2 9.7 0.00 2.87 1.42 63 1017.3
20260506214551 13 275 0.0 6.4 0.00 2.97 1.42 61 1017.3
20260506213055 13 345 0.0 6.4 0.00 2.97 1.42 61 1017.3
20260506211548 13 323 3.2 8.0 0.00 2.97 1.42 60 1017.1
20260506210055 14 278 4.8 9.7 0.00 2.97 1.42 60 1017.0
20260506204551 14 288 1.6 8.0 0.00 3.07 1.42 63 1016.9
20260506203135 13 345 1.6 4.8 0.00 3.07 1.42 59 1017.1
20260506201548 13 348 0.0 8.0 0.00 3.07 1.42 59 1016.9
20260506200050 14 338 1.6 6.4 0.00 3.07 1.42 59 1017.0
20260506194545 15 290 1.6 6.4 0.00 3.28 1.42 61 1016.9
20260506193044 15 326 3.2 12.9 0.00 3.28 1.42 61 1017.0
20260506191545 15 52 4.8 12.9 0.00 3.28 1.42 58 1016.7
20260506190049 15 340 1.6 8.0 0.00 3.28 1.42 58 1016.8
20260506184551 15 22 1.6 8.0 0.00 3.28 1.42 61 1016.9
20260506183043 15 278 1.6 8.0 0.00 3.28 1.42 59 1016.8
20260506181541 15 321 3.2 12.9 0.00 3.28 1.42 60 1016.5
20260506180042 15 345 1.6 9.7 0.00 3.28 1.42 64 1016.6
20260506174540 15 342 1.6 11.3 0.00 3.28 1.42 61 1016.9
20260506173048 15 315 3.2 9.7 0.00 3.28 1.42 61 1017.0
20260506171536 15 23 3.2 9.7 0.00 3.28 1.42 60 1016.9
20260506170032 14 282 0.0 8.0 0.00 3.28 1.42 63 1016.9
20260506164531 13 305 4.8 11.3 0.00 3.28 1.42 63 1017.1